"Pseudo-MPEC" for P1162Um

Created 2020 Sep 20 11:07:28 UT using Find_Orb

Click here for an explanation of pseudo-MPECs

 
 Astrometry: 
     P1162Um  C2020 09 14GG7U+.?(5]1\-kJ\^L?HSNkmTs*-l/9-Do]L*A7@(\EtK^!Nk)?^F51
     P1162Um  C2020 09 14^9hE+^TDAstrometryksB:0nEQ_?4udRojjJ\T]tlPck[GYmM!-]F51
     P1162Um  C2020 09 14I,ib#]j/SZWR\e6V1fs#u#5BPk)g:jVWpY::iGuiY'%D=5V^c3:8F51
     P1162Um  C2020 09 146OZ@@c-5Sredacted;dF#w`fbm/Aclickth?lXuPu.D3xMmn0]D)F51
     P1162Um  C2020 09 14AAChere9b_,K[nMuW!^!4\N[Uvk53cY+T:DpS+B4fj49p/pqmK+*F52
     P1162Um  C2020 09 14y@9v1N/uaZ;tX2Mc.a)RuvH_Fs,qX6qxOG/W0^j4dQFln.Sx:)NBF52
     P1162Um  C2020 09 16u5Nlm?=kHTOmx?e2^2Pet]=4@kPb@ekforg20*W2#flRYkKxWc;jF51
     P1162Um  C2020 09 16mZdQwSKh)hcIYP[C4m/7YClGIj$2_n?31f6_o$Hr]x.Z2!j$4FGmF51
     P1162Um  C2020 09 16ppq]V@=uSNl?+hCSaZ+I;qJ_u^+wxG4o*DiGtBO@;nK*k$EKcHfZF51
     P1162Um ^C2020 09 16.57590601 57 54.031-08 35 12.18   ~9GLb 21.51GVNEOCP568
     P1162Um ^C2020 09 16.57685301 57 54.004-08 35 10.98   ~9GLb 21.45GVNEOCP568
     P1162Um ^C2020 09 16.57780701 57 53.975-08 35 09.74   ~9GLb 21.51GVNEOCP568
     P1162Um  C2020 09 18rK00V-(.TpX_;G`ijj/+84i)lhTU6u5bEL1,T?aKw@E:/i^rtv,YF51
     P1162Um  C2020 09 18x,h-wcv_=B2N(fHikEC1D^texplanation3Blb?RR*f@kc]h#!diF51
     P1162Um  C2020 09 18Ol/Q\!w%fu=a/`-qY:Q1Dq,65iX8jB't4jKJk*XxG?--X@@c,?Z8F51
     P1162Um FC2020 09 20/o'gaL/BFw3KH$NR6Ly/3a6k[VTguhY^8;Kyg4Bg2U843ffJl?Y%L01
     P1162Um KC2020 09 20ZoJX]UG=:_X?8yTZf@iXT#ytMk9`KN0uj6T'EUD_nVY,/3Au-0.aL01
     P1162Um KC2020 09 20g-5nxNUIeyFUSNbL:V]sl`]BmHP.57C*5K99($8N3EV3-]M=@FYfL01

Station data:
(568) Mauna Kea  (N19.826116 W155.472200)  US/Hawaii.
(F51) Pan-STARRS 1, Haleakala  (N20.707235 W156.255910)  US/Hawaii.
   Observers N. Primak, A. Schultz, S. Watters, J. Thiel, T. Goggia. Measurer
   PS1 Science Consortium. 1.8-m Ritchey-Chrétien + CCD.
(F52) Pan-STARRS 2, Haleakala  (N20.707384 W156.255910)  US/Hawaii. 1.8-m
   Ritchey-Chrétien + CCD.
(L01) Višnjan Observatory, Tičan  (N45.290900 E13.749300)  Croatia.
   Observers K. Korlević, E. Pettarin. Measurer E. Pettarin. 1.0-m f/2.9
   reflector + CCD.

Orbital elements:  P1162Um
   Perihelion 2020 Dec 9.278146 +/- 0.0387 TT =  6:40:31 (JD 2459192.778146)
Epoch 2020 Sep 20.0 TT = JDT 2459112.5   Earth MOID: 0.2611   Ma: 0.0457
M 341.70968089 +/- 0.20             (J2000 ecliptic)          AutoNEOCP
n   0.22783683 +/- 0.0024           Peri.   53.75647 +/- 0.06
a   2.65493209 +/- 0.0187           Node    19.59997 +/- 0.009
e   0.5750752 +/- 0.00302           Incl.   24.97285 +/- 0.07
P   4.33                   H 21.4   G  0.15   U  8.7  
q 1.12814642 +/- 0.000763    Q 4.18171776 +/- 0.0379
From 18 observations 2020 Sept. 14-20; mean residual 0".12
Residuals in arcseconds: 
200914 F51  .01+  .10-    200916 F51  .03-  .08+    200918 F51  .11+  .05-    
200914 F51  .06+  .17-    200916 F51  .04-  .02+    200918 F51  .08+  .10-    
200914 F51  .04+  .17+    200916 F51  .00   .09+    200918 F51  .14+  .08-    
200914 F51  .04-  .05-    200916 568  .06-  .02+    200920 L01  .41-  .26+    
200914 F52  .02-  .17+    200916 568  .05-  .00     200920 L01  .12+  .13-    
200914 F52  .02+  .12-    200916 568  .06-  .02+    200920 L01  .15+  .05-    

Ephemerides (geocentric):
Date (UTC) HH   RA              Dec         delta   r     elong  mag " sig PA
---- -- -- --  -------------   -----------  ------ ------ -----  --- ---- ---
2020 09 20 11  01 55 52.338   -07 04 20.94  .51314 1.4660 148.4 21.8 .197  84
2020 09 20 12  01 55 50.687   -07 03 17.07  .51269 1.4657 148.4 21.8 .206  84
2020 09 20 13  01 55 49.028   -07 02 13.08  .51225 1.4655 148.5 21.8 .214  84
2020 09 20 14  01 55 47.362   -07 01 08.97  .51181 1.4652 148.5 21.8 .223  83
2020 09 20 15  01 55 45.688   -07 00 04.73  .51137 1.4649 148.5 21.8 .231  83
2020 09 20 16  01 55 44.006   -06 59 00.36  .51092 1.4646 148.6 21.8 .240  83
2020 09 20 17  01 55 42.317   -06 57 55.87  .51048 1.4643 148.6 21.8 .249  82
2020 09 20 18  01 55 40.621   -06 56 51.26  .51004 1.4640 148.7 21.8 .258  82
2020 09 20 19  01 55 38.917   -06 55 46.52  .50960 1.4637 148.7 21.8 .267  82
2020 09 20 20  01 55 37.205   -06 54 41.66  .50916 1.4635 148.8 21.7 .277  82
2020 09 20 21  01 55 35.486   -06 53 36.67  .50872 1.4632 148.8 21.7 .286  81
2020 09 20 22  01 55 33.759   -06 52 31.55  .50828 1.4629 148.9 21.7 .296  81
2020 09 20 23  01 55 32.024   -06 51 26.31  .50784 1.4626 148.9 21.7 .305  81
2020 09 21 00  01 55 30.282   -06 50 20.94  .50740 1.4623 148.9 21.7 .315  81
2020 09 21 01  01 55 28.532   -06 49 15.44  .50696 1.4620 149.0 21.7 .325  80
2020 09 21 02  01 55 26.774   -06 48 09.82  .50652 1.4617 149.0 21.7 .335  80
2020 09 21 03  01 55 25.009   -06 47 04.07  .50608 1.4614 149.1 21.7 .345  80
2020 09 21 04  01 55 23.236   -06 45 58.19  .50564 1.4612 149.1 21.7 .355  80
2020 09 21 05  01 55 21.455   -06 44 52.18  .50520 1.4609 149.2 21.7 .365  80
2020 09 21 06  01 55 19.667   -06 43 46.05  .50476 1.4606 149.2 21.7 .375  80
2020 09 21 07  01 55 17.871   -06 42 39.78  .50432 1.4603 149.2 21.7 .386  79
2020 09 21 08  01 55 16.067   -06 41 33.39  .50388 1.4600 149.3 21.7 .396  79
2020 09 21 09  01 55 14.256   -06 40 26.87  .50345 1.4597 149.3 21.7 .407  79
2020 09 21 10  01 55 12.437   -06 39 20.22  .50301 1.4594 149.4 21.7 .418  79
2020 09 21 11  01 55 10.610   -06 38 13.44  .50257 1.4592 149.4 21.7 .429  79
2020 09 21 12  01 55 08.775   -06 37 06.53  .50214 1.4589 149.5 21.7 .440  79
2020 09 21 13  01 55 06.933   -06 35 59.48  .50170 1.4586 149.5 21.7 .451  78
2020 09 21 14  01 55 05.083   -06 34 52.31  .50126 1.4583 149.6 21.7 .462  78
2020 09 21 15  01 55 03.225   -06 33 45.01  .50083 1.4580 149.6 21.7 .473  78
2020 09 21 16  01 55 01.359   -06 32 37.58  .50039 1.4577 149.6 21.7 .484  78
2020 09 21 17  01 54 59.485   -06 31 30.01  .49996 1.4574 149.7 21.7 .496  78
2020 09 21 18  01 54 57.604   -06 30 22.32  .49952 1.4572 149.7 21.7 .508  78
2020 09 21 19  01 54 55.715   -06 29 14.49  .49909 1.4569 149.8 21.7 .519  78
2020 09 21 20  01 54 53.818   -06 28 06.53  .49865 1.4566 149.8 21.7 .531  77
2020 09 21 21  01 54 51.913   -06 26 58.44  .49822 1.4563 149.9 21.7 .543  77
2020 09 21 22  01 54 50.000   -06 25 50.21  .49778 1.4560 149.9 21.7 .555  77
2020 09 21 23  01 54 48.080   -06 24 41.85  .49735 1.4557 149.9 21.7 .567  77
2020 09 22 00  01 54 46.151   -06 23 33.36  .49692 1.4554 150.0 21.7 .579  77
2020 09 22 01  01 54 44.215   -06 22 24.74  .49648 1.4552 150.0 21.7 .592  77
2020 09 22 02  01 54 42.271   -06 21 15.98  .49605 1.4549 150.1 21.7 .604  77
2020 09 22 03  01 54 40.319   -06 20 07.08  .49562 1.4546 150.1 21.7 .617  77
2020 09 22 04  01 54 38.359   -06 18 58.06  .49518 1.4543 150.2 21.6 .629  77
2020 09 22 05  01 54 36.391   -06 17 48.89  .49475 1.4540 150.2 21.6 .642  76
2020 09 22 06  01 54 34.415   -06 16 39.60  .49432 1.4537 150.3 21.6 .655  76
2020 09 22 07  01 54 32.431   -06 15 30.17  .49389 1.4534 150.3 21.6 .668  76
2020 09 22 08  01 54 30.439   -06 14 20.60  .49346 1.4532 150.4 21.6 .681  76
2020 09 22 09  01 54 28.440   -06 13 10.90  .49303 1.4529 150.4 21.6 .694  76
2020 09 22 10  01 54 26.432   -06 12 01.06  .49260 1.4526 150.4 21.6 .708  76